Вернуться в каталог

STARLINK-37968

АктивенСвязьSSO
NORAD 69686·PAYLOAD·🇺🇸 United States

Запущен Jun 25, 2026 с Vandenberg Space Force Base

Loading…

Ближайшие Пролёты (ближайшие 24 часа)

TLE

СвежийSource: CelesTrak SupGP

Эпоха: Sep 15, 2026, 02:53 UTC

1 69686C 26145K   26258.12062500 -.00024581  00000+0 -76298-3 0  2586
2 69686  97.2846 104.8526 0002000  92.1034  74.7039 15.33453274    18

Отслеживайте STARLINK-37968 в реальном времени с AllMySat

Download on the App Store